Time,TemperatureF,DewpointF,PressureIn,WindDirection,WindDirectionDegrees,WindSpeedMPH,WindSpeedGustMPH,Humidity,HourlyPrecipIn,Conditions,Clouds,dailyrainin,SoftwareType,DateUTC
2013-04-01 00:05:00,158.0,0.0,29.87,South,184,9.0,10.0,0,0.00,,---,0.00,VWS V14.00,2013-04-01 05:05:00,
2013-04-01 00:15:00,158.0,0.0,29.88,SW,220,5.0,10.0,0,0.00,,---,0.00,VWS V14.00,2013-04-01 05:15:00,
2013-04-01 00:25:00,158.0,0.0,29.88,West,261,5.0,7.0,0,0.00,,---,0.00,VWS V14.00,2013-04-01 05:25:00,
2013-04-01 00:35:00,158.0,0.0,29.89,West,276,6.0,7.0,0,0.00,,---,0.00,VWS V14.00,2013-04-01 05:35:00,
2013-04-01 00:45:00,158.0,0.0,29.89,NW,304,11.0,12.0,0,0.00,,---,0.00,VWS V14.00,2013-04-01 05:45:00,
2013-04-01 00:55:00,158.0,0.0,29.89,WNW,300,14.0,15.0,0,0.00,,---,0.00,VWS V14.00,2013-04-01 05:55:00,
2013-04-01 01:05:00,158.0,0.0,29.90,NW,305,11.0,15.0,0,0.00,,---,0.00,VWS V14.00,2013-04-01 06:05:00,
2013-04-01 01:15:00,158.0,0.0,29.90,NW,306,12.0,14.0,0,0.00,,---,0.00,VWS V14.00,2013-04-01 06:15:00,
2013-04-01 01:25:00,158.0,0.0,29.90,WNW,303,12.0,13.0,0,0.00,,---,0.00,VWS V14.00,2013-04-01 06:25:00,
2013-04-01 01:35:00,158.0,0.0,29.90,NW,308,12.0,12.0,0,0.00,,---,0.00,VWS V14.00,2013-04-01 06:35:00,
2013-04-01 01:45:00,158.0,0.0,29.89,WNW,284,8.0,12.0,0,0.00,,---,0.00,VWS V14.00,2013-04-01 06:45:00,
2013-04-01 01:55:00,158.0,0.0,29.89,West,279,5.0,11.0,0,0.00,,---,0.00,VWS V14.00,2013-04-01 06:55:00,
2013-04-01 02:05:00,158.0,0.0,29.89,West,275,2.0,6.0,0,0.00,,---,0.00,VWS V14.00,2013-04-01 07:05:00,
2013-04-01 02:15:00,158.0,0.0,29.89,West,275,0.0,3.0,0,0.00,,---,0.00,VWS V14.00,2013-04-01 07:15:00,
2013-04-01 02:25:00,158.0,0.0,29.89,West,275,4.0,4.0,0,0.00,,---,0.00,VWS V14.00,2013-04-01 07:25:00,
2013-04-01 02:35:00,158.0,0.0,29.89,West,275,3.0,4.0,0,0.00,,---,0.00,VWS V14.00,2013-04-01 07:35:00,
2013-04-01 02:45:00,158.0,0.0,29.90,West,275,3.0,5.0,0,0.00,,---,0.00,VWS V14.00,2013-04-01 07:45:00,
2013-04-01 02:55:00,158.0,0.0,29.89,West,275,0.0,4.0,0,0.00,,---,0.00,VWS V14.00,2013-04-01 07:55:00,
2013-04-01 03:05:00,158.0,0.0,29.89,West,275,0.0,0.0,0,0.00,,---,0.00,VWS V14.00,2013-04-01 08:05:00,
2013-04-01 03:15:00,158.0,0.0,29.89,West,275,0.0,0.0,0,0.00,,---,0.00,VWS V14.00,2013-04-01 08:15:00,
2013-04-01 03:25:00,158.0,0.0,29.89,West,275,0.0,0.0,0,0.00,,---,0.00,VWS V14.00,2013-04-01 08:25:00,
2013-04-01 03:35:00,158.0,0.0,29.89,West,275,0.0,0.0,0,0.00,,---,0.00,VWS V14.00,2013-04-01 08:35:00,
2013-04-01 03:45:00,158.0,0.0,29.89,West,275,0.0,0.0,0,0.00,,---,0.00,VWS V14.00,2013-04-01 08:45:00,
2013-04-01 03:55:00,158.0,0.0,29.90,West,275,0.0,0.0,0,0.00,,---,0.00,VWS V14.00,2013-04-01 08:55:00,
2013-04-01 04:05:00,158.0,0.0,29.90,West,275,0.0,0.0,0,0.00,,---,0.00,VWS V14.00,2013-04-01 09:05:00,
2013-04-01 04:15:00,158.0,0.0,29.90,West,275,3.0,4.0,0,0.00,,---,0.00,VWS V14.00,2013-04-01 09:15:00,
2013-04-01 04:25:00,158.0,0.0,29.90,SW,225,5.0,5.0,0,0.00,,---,0.00,VWS V14.00,2013-04-01 09:25:00,
2013-04-01 04:35:00,158.0,0.0,29.91,SW,227,4.0,6.0,0,0.00,,---,0.00,VWS V14.00,2013-04-01 09:35:00,
2013-04-01 04:45:00,158.0,0.0,29.91,SW,229,5.0,7.0,0,0.00,,---,0.00,VWS V14.00,2013-04-01 09:45:00,
2013-04-01 04:55:00,158.0,0.0,29.92,WSW,246,5.0,7.0,0,0.00,,---,0.00,VWS V14.00,2013-04-01 09:55:00,
2013-04-01 05:05:00,158.0,0.0,29.92,West,261,6.0,9.0,0,0.00,,---,0.00,VWS V14.00,2013-04-01 10:05:00,
2013-04-01 05:15:00,158.0,0.0,29.93,WSW,246,9.0,10.0,0,0.00,,---,0.00,VWS V14.00,2013-04-01 10:15:00,
2013-04-01 05:25:00,158.0,0.0,29.93,WSW,254,10.0,10.0,0,0.00,,---,0.00,VWS V14.00,2013-04-01 10:25:00,
2013-04-01 05:35:00,158.0,0.0,29.94,WSW,251,7.0,10.0,0,0.00,,---,0.00,VWS V14.00,2013-04-01 10:35:00,
2013-04-01 05:45:00,158.0,0.0,29.94,WSW,251,7.0,10.0,0,0.00,,---,0.00,VWS V14.00,2013-04-01 10:45:00,
2013-04-01 05:55:00,158.0,0.0,29.94,WSW,255,7.0,9.0,0,0.00,,---,0.00,VWS V14.00,2013-04-01 10:55:00,
2013-04-01 06:05:00,158.0,0.0,29.95,WSW,244,6.0,9.0,0,0.00,,---,0.00,VWS V14.00,2013-04-01 11:05:00,
2013-04-01 06:15:00,158.0,0.0,29.95,WSW,238,9.0,9.0,0,0.00,,---,0.00,VWS V14.00,2013-04-01 11:15:00,
2013-04-01 06:25:00,158.0,0.0,29.96,WSW,242,8.0,10.0,0,0.00,,---,0.00,VWS V14.00,2013-04-01 11:25:00,
2013-04-01 06:35:00,158.0,0.0,29.96,WSW,245,7.0,10.0,0,0.00,,---,0.00,VWS V14.00,2013-04-01 11:35:00,
2013-04-01 06:45:00,158.0,0.0,29.96,WSW,246,9.0,10.0,0,0.00,,---,0.00,VWS V14.00,2013-04-01 11:45:00,
2013-04-01 06:55:00,158.0,0.0,29.96,WSW,249,10.0,11.0,0,0.00,,---,0.00,VWS V14.00,2013-04-01 11:55:00,
2013-04-01 07:05:00,158.0,0.0,29.97,West,261,10.0,12.0,0,0.00,,---,0.00,VWS V14.00,2013-04-01 12:05:00,
2013-04-01 07:15:00,158.0,0.0,29.98,West,272,9.0,12.0,0,0.00,,---,0.00,VWS V14.00,2013-04-01 12:15:00,
2013-04-01 07:25:00,158.0,0.0,29.98,WNW,290,12.0,13.0,0,0.00,,---,0.00,VWS V14.00,2013-04-01 12:25:00,
2013-04-01 07:35:00,158.0,0.0,29.98,WNW,288,11.0,14.0,0,0.00,,---,0.00,VWS V14.00,2013-04-01 12:35:00,
2013-04-01 07:45:00,158.0,0.0,29.98,NW,311,13.0,14.0,0,0.00,,---,0.00,VWS V14.00,2013-04-01 12:45:00,
2013-04-01 07:55:00,158.0,0.0,29.99,NW,307,13.0,15.0,0,0.00,,---,0.00,VWS V14.00,2013-04-01 12:55:00,
2013-04-01 08:05:00,158.0,0.0,29.99,NW,323,15.0,16.0,0,0.00,,---,0.00,VWS V14.00,2013-04-01 13:05:00,
2013-04-01 08:15:00,158.0,0.0,30.00,NNW,335,15.0,16.0,0,0.00,,---,0.00,VWS V14.00,2013-04-01 13:15:00,
2013-04-01 08:25:00,158.0,0.0,30.00,NNW,336,15.0,18.0,0,0.00,,---,0.00,VWS V14.00,2013-04-01 13:25:00,
2013-04-01 08:35:00,158.0,0.0,30.00,NNW,327,16.0,18.0,0,0.00,,---,0.00,VWS V14.00,2013-04-01 13:35:00,
2013-04-01 08:45:00,158.0,0.0,30.00,NW,319,16.0,19.0,0,0.00,,---,0.00,VWS V14.00,2013-04-01 13:45:00,
2013-04-01 08:55:00,158.0,0.0,30.01,NW,323,13.0,17.0,0,0.00,,---,0.00,VWS V14.00,2013-04-01 13:55:00,
2013-04-01 09:05:00,158.0,0.0,30.01,NNW,335,13.0,16.0,0,0.00,,---,0.00,VWS V14.00,2013-04-01 14:05:00,
2013-04-01 09:15:00,158.0,0.0,30.01,NW,326,14.0,16.0,0,0.00,,---,0.00,VWS V14.00,2013-04-01 14:15:00,
2013-04-01 09:25:00,158.0,0.0,30.01,NNW,327,14.0,16.0,0,0.00,,---,0.00,VWS V14.00,2013-04-01 14:25:00,
2013-04-01 09:35:00,158.0,0.0,30.01,NW,326,14.0,16.0,0,0.00,,---,0.00,VWS V14.00,2013-04-01 14:35:00,
2013-04-01 09:45:00,158.0,0.0,30.01,NNW,340,15.0,15.0,0,0.00,,---,0.00,VWS V14.00,2013-04-01 14:45:00,
2013-04-01 09:55:00,158.0,0.0,30.02,NNW,327,12.0,16.0,0,0.00,,---,0.00,VWS V14.00,2013-04-01 14:55:00,
2013-04-01 10:05:00,158.0,0.0,30.01,NNW,338,12.0,15.0,0,0.00,,---,0.00,VWS V14.00,2013-04-01 15:05:00,
2013-04-01 10:15:00,158.0,0.0,30.01,NNW,327,14.0,16.0,0,0.00,,---,0.00,VWS V14.00,2013-04-01 15:15:00,
2013-04-01 10:25:00,158.0,0.0,30.01,North,355,12.0,15.0,0,0.00,,---,0.00,VWS V14.00,2013-04-01 15:25:00,
2013-04-01 10:35:00,158.0,0.0,30.01,NNW,331,12.0,14.0,0,0.00,,---,0.00,VWS V14.00,2013-04-01 15:35:00,
2013-04-01 10:45:00,158.0,0.0,30.02,NNW,348,13.0,14.0,0,0.00,,---,0.00,VWS V14.00,2013-04-01 15:45:00,
2013-04-01 10:55:00,158.0,0.0,30.02,NNW,330,13.0,15.0,0,0.00,,---,0.00,VWS V14.00,2013-04-01 15:55:00,
2013-04-01 11:05:00,158.0,0.0,30.02,NW,323,14.0,15.0,0,0.00,,---,0.00,VWS V14.00,2013-04-01 16:05:00,
2013-04-01 11:15:00,158.0,0.0,30.03,NNW,339,10.0,15.0,0,0.00,,---,0.00,VWS V14.00,2013-04-01 16:15:00,
2013-04-01 11:25:00,158.0,0.0,30.03,NNW,335,10.0,13.0,0,0.00,,---,0.00,VWS V14.00,2013-04-01 16:25:00,
2013-04-01 11:35:00,158.0,0.0,30.04,NW,321,12.0,13.0,0,0.00,,---,0.00,VWS V14.00,2013-04-01 16:35:00,
2013-04-01 11:45:00,158.0,0.0,30.04,NW,316,13.0,14.0,0,0.00,,---,0.00,VWS V14.00,2013-04-01 16:45:00,
2013-04-01 11:55:00,158.0,0.0,30.04,NNW,334,10.0,15.0,0,0.00,,---,0.00,VWS V14.00,2013-04-01 16:55:00,
2013-04-01 12:05:00,158.0,0.0,30.04,NW,323,13.0,14.0,0,0.00,,---,0.00,VWS V14.00,2013-04-01 17:05:00,
2013-04-01 12:15:00,158.0,0.0,30.03,NNW,348,11.0,14.0,0,0.00,,---,0.00,VWS V14.00,2013-04-01 17:15:00,
2013-04-01 12:25:00,158.0,0.0,30.02,NNW,337,11.0,14.0,0,0.00,,---,0.00,VWS V14.00,2013-04-01 17:25:00,
2013-04-01 12:35:00,158.0,0.0,30.03,North,351,13.0,14.0,0,0.00,,---,0.00,VWS V14.00,2013-04-01 17:35:00,
2013-04-01 12:45:00,158.0,0.0,30.02,NW,325,12.0,15.0,0,0.00,,---,0.00,VWS V14.00,2013-04-01 17:45:00,
2013-04-01 12:55:00,158.0,0.0,30.02,NNW,331,11.0,14.0,0,0.00,,---,0.00,VWS V14.00,2013-04-01 17:55:00,
2013-04-01 13:05:00,158.0,0.0,30.02,NW,320,12.0,13.0,0,0.00,,---,0.00,VWS V14.00,2013-04-01 18:05:00,
2013-04-01 13:15:00,158.0,0.0,30.01,NNW,330,11.0,13.0,0,0.00,,---,0.00,VWS V14.00,2013-04-01 18:15:00,
2013-04-01 13:25:00,158.0,0.0,30.01,NW,322,11.0,13.0,0,0.00,,---,0.00,VWS V14.00,2013-04-01 18:25:00,
2013-04-01 13:35:00,158.0,0.0,30.01,NNW,328,10.0,13.0,0,0.00,,---,0.00,VWS V14.00,2013-04-01 18:35:00,
2013-04-01 13:45:00,158.0,0.0,30.01,NW,323,11.0,12.0,0,0.00,,---,0.00,VWS V14.00,2013-04-01 18:45:00,
2013-04-01 13:55:00,158.0,0.0,30.01,NW,317,10.0,11.0,0,0.00,,---,0.00,VWS V14.00,2013-04-01 18:55:00,
2013-04-01 14:05:00,158.0,0.0,30.01,NW,321,9.0,12.0,0,0.00,,---,0.00,VWS V14.00,2013-04-01 19:05:00,
2013-04-01 14:15:00,158.0,0.0,30.00,NNW,334,10.0,12.0,0,0.00,,---,0.00,VWS V14.00,2013-04-01 19:15:00,
2013-04-01 14:25:00,158.0,0.0,29.99,NW,319,12.0,13.0,0,0.00,,---,0.00,VWS V14.00,2013-04-01 19:25:00,
2013-04-01 14:35:00,158.0,0.0,29.99,NW,324,11.0,14.0,0,0.00,,---,0.00,VWS V14.00,2013-04-01 19:35:00,
2013-04-01 14:45:00,158.0,0.0,29.99,NW,313,11.0,13.0,0,0.00,,---,0.00,VWS V14.00,2013-04-01 19:45:00,
2013-04-01 14:55:00,158.0,0.0,29.99,NW,305,9.0,12.0,0,0.00,,---,0.00,VWS V14.00,2013-04-01 19:55:00,
2013-04-01 15:05:00,158.0,0.0,29.99,NW,304,7.0,10.0,0,0.00,,---,0.00,VWS V14.00,2013-04-01 20:05:00,
2013-04-01 15:15:00,158.0,0.0,29.98,NW,321,7.0,10.0,0,0.00,,---,0.00,VWS V14.00,2013-04-01 20:15:00,
2013-04-01 15:25:00,158.0,0.0,29.98,NW,315,9.0,10.0,0,0.00,,---,0.00,VWS V14.00,2013-04-01 20:25:00,
2013-04-01 15:35:00,158.0,0.0,29.98,NW,318,9.0,11.0,0,0.00,,---,0.00,VWS V14.00,2013-04-01 20:35:00,
2013-04-01 15:45:00,158.0,0.0,29.98,NNW,328,7.0,10.0,0,0.00,,---,0.00,VWS V14.00,2013-04-01 20:45:00,
2013-04-01 15:55:00,158.0,0.0,29.97,NNW,336,6.0,8.0,0,0.00,,---,0.00,VWS V14.00,2013-04-01 20:55:00,
2013-04-01 16:05:00,158.0,0.0,29.97,NNW,346,6.0,7.0,0,0.00,,---,0.00,VWS V14.00,2013-04-01 21:05:00,
2013-04-01 16:15:00,158.0,0.0,29.97,North,355,4.0,7.0,0,0.00,,---,0.00,VWS V14.00,2013-04-01 21:15:00,
2013-04-01 16:25:00,158.0,0.0,29.97,North,355,3.0,5.0,0,0.00,,---,0.00,VWS V14.00,2013-04-01 21:25:00,
2013-04-01 16:35:00,158.0,0.0,29.97,North,355,3.0,4.0,0,0.00,,---,0.00,VWS V14.00,2013-04-01 21:35:00,
2013-04-01 16:45:00,158.0,0.0,29.96,North,355,4.0,4.0,0,0.00,,---,0.00,VWS V14.00,2013-04-01 21:45:00,
2013-04-01 16:55:00,158.0,0.0,29.96,North,351,9.0,10.0,0,0.00,,---,0.00,VWS V14.00,2013-04-01 21:55:00,
2013-04-01 17:05:00,158.0,0.0,29.96,North,350,7.0,10.0,0,0.00,,---,0.00,VWS V14.00,2013-04-01 22:05:00,
2013-04-01 17:15:00,158.0,0.0,29.95,North,351,10.0,10.0,0,0.00,,---,0.00,VWS V14.00,2013-04-01 22:15:00,
2013-04-01 17:25:00,158.0,0.0,29.96,NNW,347,7.0,10.0,0,0.00,,---,0.00,VWS V14.00,2013-04-01 22:25:00,
2013-04-01 17:35:00,158.0,0.0,29.96,NNW,342,4.0,9.0,0,0.00,,---,0.00,VWS V14.00,2013-04-01 22:35:00,
2013-04-01 17:45:00,158.0,0.0,29.95,NNW,341,5.0,6.0,0,0.00,,---,0.00,VWS V14.00,2013-04-01 22:45:00,
2013-04-01 17:55:00,158.0,0.0,29.96,NNW,341,4.0,5.0,0,0.00,,---,0.00,VWS V14.00,2013-04-01 22:55:00,
2013-04-01 18:05:00,158.0,0.0,29.96,NNW,341,5.0,6.0,0,0.00,,---,0.00,VWS V14.00,2013-04-01 23:05:00,
2013-04-01 18:15:00,158.0,0.0,29.96,NNW,340,4.0,6.0,0,0.00,,---,0.00,VWS V14.00,2013-04-01 23:15:00,
2013-04-01 18:25:00,158.0,0.0,29.96,NNW,340,5.0,6.0,0,0.00,,---,0.00,VWS V14.00,2013-04-01 23:25:00,
2013-04-01 18:35:00,158.0,0.0,29.96,NNW,342,5.0,6.0,0,0.00,,---,0.00,VWS V14.00,2013-04-01 23:35:00,
2013-04-01 18:45:00,158.0,0.0,29.96,North,355,6.0,7.0,0,0.00,,---,0.00,VWS V14.00,2013-04-01 23:45:00,
2013-04-01 18:55:00,158.0,0.0,29.96,North,10,6.0,7.0,0,0.00,,---,0.00,VWS V14.00,2013-04-01 23:55:00,
2013-04-01 19:05:00,158.0,0.0,29.96,NNE,26,6.0,6.0,0,0.00,,---,0.00,VWS V14.00,2013-04-02 00:05:00,
2013-04-01 19:15:00,158.0,0.0,29.96,NNE,23,5.0,7.0,0,0.00,,---,0.00,VWS V14.00,2013-04-02 00:15:00,
2013-04-01 19:25:00,158.0,0.0,29.97,NNE,20,4.0,6.0,0,0.00,,---,0.00,VWS V14.00,2013-04-02 00:25:00,
2013-04-01 19:35:00,158.0,0.0,29.97,NNE,20,4.0,5.0,0,0.00,,---,0.00,VWS V14.00,2013-04-02 00:35:00,
2013-04-01 19:45:00,158.0,0.0,29.98,NNE,20,4.0,5.0,0,0.00,,---,0.00,VWS V14.00,2013-04-02 00:45:00,
2013-04-01 19:55:00,158.0,0.0,29.98,NNE,20,3.0,5.0,0,0.00,,---,0.00,VWS V14.00,2013-04-02 00:55:00,
2013-04-01 20:05:00,158.0,0.0,29.98,NNE,20,2.0,3.0,0,0.00,,---,0.00,VWS V14.00,2013-04-02 01:05:00,
2013-04-01 20:15:00,158.0,0.0,29.98,NNE,20,1.0,3.0,0,0.00,,---,0.00,VWS V14.00,2013-04-02 01:15:00,
2013-04-01 20:25:00,158.0,0.0,29.98,NNE,20,2.0,4.0,0,0.00,,---,0.00,VWS V14.00,2013-04-02 01:25:00,
2013-04-01 20:35:00,158.0,0.0,29.98,NNE,21,5.0,6.0,0,0.00,,---,0.00,VWS V14.00,2013-04-02 01:35:00,
2013-04-01 20:45:00,158.0,0.0,29.98,NNE,21,4.0,5.0,0,0.00,,---,0.00,VWS V14.00,2013-04-02 01:45:00,
2013-04-01 20:55:00,158.0,0.0,29.98,NNE,21,2.0,4.0,0,0.00,,---,0.00,VWS V14.00,2013-04-02 01:55:00,
2013-04-01 21:05:00,158.0,0.0,29.98,NNE,24,2.0,3.0,0,0.00,,---,0.00,VWS V14.00,2013-04-02 02:05:00,
2013-04-01 21:15:00,158.0,0.0,29.98,NNE,28,3.0,4.0,0,0.00,,---,0.00,VWS V14.00,2013-04-02 02:15:00,
2013-04-01 21:25:00,158.0,0.0,29.99,NE,40,3.0,4.0,0,0.00,,---,0.00,VWS V14.00,2013-04-02 02:25:00,
2013-04-01 21:35:00,158.0,0.0,29.99,NE,41,2.0,4.0,0,0.00,,---,0.00,VWS V14.00,2013-04-02 02:35:00,
2013-04-01 21:45:00,158.0,0.0,29.99,NE,43,5.0,5.0,0,0.00,,---,0.00,VWS V14.00,2013-04-02 02:45:00,
2013-04-01 21:55:00,158.0,0.0,29.99,NE,44,3.0,5.0,0,0.00,,---,0.00,VWS V14.00,2013-04-02 02:55:00,
2013-04-01 22:05:00,158.0,0.0,29.99,NE,56,4.0,6.0,0,0.00,,---,0.00,VWS V14.00,2013-04-02 03:05:00,
2013-04-01 22:15:00,158.0,0.0,29.99,NE,56,5.0,5.0,0,0.00,,---,0.00,VWS V14.00,2013-04-02 03:15:00,
2013-04-01 22:25:00,158.0,0.0,29.99,ENE,57,4.0,5.0,0,0.00,,---,0.00,VWS V14.00,2013-04-02 03:25:00,
2013-04-01 22:35:00,158.0,0.0,29.99,ENE,57,5.0,5.0,0,0.00,,---,0.00,VWS V14.00,2013-04-02 03:35:00,
2013-04-01 22:45:00,158.0,0.0,29.99,ENE,57,5.0,6.0,0,0.00,,---,0.00,VWS V14.00,2013-04-02 03:45:00,
2013-04-01 22:55:00,158.0,0.0,30.00,ENE,57,7.0,7.0,0,0.00,,---,0.00,VWS V14.00,2013-04-02 03:55:00,
2013-04-01 23:05:00,158.0,0.0,29.99,NE,55,6.0,7.0,0,0.00,,---,0.00,VWS V14.00,2013-04-02 04:05:00,
2013-04-01 23:15:00,158.0,0.0,29.99,NE,53,3.0,7.0,0,0.00,,---,0.00,VWS V14.00,2013-04-02 04:15:00,
2013-04-01 23:25:00,158.0,0.0,30.00,NE,53,0.0,4.0,0,0.00,,---,0.00,VWS V14.00,2013-04-02 04:25:00,
2013-04-01 23:35:00,158.0,0.0,30.00,NE,53,0.0,0.0,0,0.00,,---,0.00,VWS V14.00,2013-04-02 04:35:00,
2013-04-01 23:45:00,158.0,0.0,30.00,NE,53,0.0,0.0,0,0.00,,---,0.00,VWS V14.00,2013-04-02 04:45:00,
2013-04-01 23:55:00,158.0,0.0,30.00,NE,53,0.0,0.0,0,0.00,,---,0.00,VWS V14.00,2013-04-02 04:55:00,